CW6633 Weather Reports


Display with metric or nautical units.
time (UTC)temp
F
wind
direction
speed
MPH
gust
MPH
rain 1hr
in
rain 24hr
in
rain mn
in
humidity
%
barometer
mb
20181117155516 31 165 0.0 2.0 0.00 0.00 0.00 93 1020.3
20181117154517 31 205 0.0 1.0 0.00 0.00 0.00 93 1020.7
20181117153516 31 203 0.0 2.0 0.00 0.00 0.00 93 1021.0
20181117152517 31 119 0.0 1.0 0.00 0.00 0.00 92 1021.0
20181117151517 31 0.0 1.0 0.00 0.00 0.00 92 1021.0
20181117150516 31 0.0 1.0 0.00 0.00 0.00 92 1020.5
20181117145517 31 149 0.0 2.0 0.00 0.00 0.00 92 1020.4
20181117144516 31 0.0 1.0 0.00 0.00 0.00 92 1019.9
20181117143516 31 149 0.0 1.0 0.00 0.00 0.00 92 1019.9
20181117142516 31 0.0 1.0 0.00 0.00 0.00 91 1019.9
20181117141518 31 30 0.0 1.0 0.00 0.00 0.00 91 1019.7
20181117140516 31 0.0 1.0 0.00 0.00 0.00 91 1019.6
20181117135516 31 0.0 0.0 0.00 0.00 0.00 91 1019.6
20181117134516 31 0.0 0.0 0.00 0.00 0.00 91 1019.9
20181117133517 31 0.0 0.0 0.00 0.00 0.00 90 1019.8
20181117132517 31 24 0.0 1.0 0.00 0.00 0.00 90 1019.7
20181117131521 31 24 0.0 1.0 0.00 0.00 0.00 90 1019.7
20181117130516 31 0.0 0.0 0.00 0.00 0.00 90 1019.9
20181117125517 31 24 0.0 1.0 0.00 0.00 0.00 89 1020.3
20181117124516 31 24 0.0 1.0 0.00 0.00 0.00 89 1019.9
20181117123516 32 24 0.0 1.0 0.00 0.00 0.00 88 1019.9
20181117122516 32 24 0.0 1.0 0.00 0.00 0.00 87 1019.5
20181117121516 32 23 0.0 1.0 0.00 0.00 0.00 87 1019.9
20181117120516 32 23 0.0 1.0 0.00 0.00 0.00 86 1020.1
20181117115517 32 23 0.0 1.0 0.00 0.00 0.00 85 1020.1
20181117114516 32 0.0 1.0 0.00 0.00 0.00 84 1020.1
20181117113516 32 0.0 1.0 0.00 0.00 0.00 83 1020.5
20181117112516 32 28 0.0 1.0 0.00 0.00 0.00 83 1021.0
20181117111516 32 157 0.0 1.0 0.00 0.00 0.00 82 1021.4
20181117110516 32 0.0 0.0 0.00 0.00 0.00 82 1021.4
20181117105516 33 0.0 0.0 0.00 0.00 0.00 82 1021.4
20181117104516 33 0.0 0.0 0.00 0.00 0.00 82 1021.9
20181117103516 33 0.0 0.0 0.00 0.00 0.00 81 1021.9
20181117102516 33 0.0 0.0 0.00 0.00 0.00 81 1022.5
20181117101516 33 0.0 0.0 0.00 0.00 0.00 80 1022.6
20181117100516 33 0.0 0.0 0.00 0.00 0.00 80 1023.1
20181117095516 33 0.0 0.0 0.00 0.00 0.00 79 1023.5
20181117094516 33 0.0 0.0 0.00 0.00 0.00 79 1023.1
20181117093516 33 0.0 0.0 0.00 0.00 0.00 78 1023.6
20181117092516 34 0.0 0.0 0.00 0.00 0.00 78 1023.6
20181117091515 34 0.0 0.0 0.00 0.00 0.00 78 1023.6
20181117090516 34 199 0.0 1.0 0.00 0.00 0.00 77 1023.6
20181117085516 34 195 0.0 1.0 0.00 0.00 0.00 77 1023.5
20181117084516 34 0.0 0.0 0.00 0.00 0.00 76 1023.2
20181117083516 34 0.0 0.0 0.00 0.00 0.00 75 1023.2
20181117082517 34 0.0 0.0 0.00 0.00 0.00 75 1023.2
20181117081516 34 0.0 0.0 0.00 0.00 0.00 74 1022.7
20181117080516 35 0.0 0.0 0.00 0.00 0.00 73 1022.6
20181117075516 35 0.0 0.0 0.00 0.00 0.00 72 1022.6
20181117074515 35 152 0.0 1.0 0.00 0.00 0.00 71 1022.5
20181117073516 36 150 0.0 1.0 0.00 0.00 0.00 70 1022.5
20181117072516 36 0.0 0.0 0.00 0.00 0.00 70 1022.6
20181117071516 36 166 0.0 2.0 0.00 0.00 0.00 71 1022.6
20181117070517 36 0.0 1.0 0.00 0.00 0.00 70 1022.6
20181117065516 36 0.0 0.0 0.00 0.00 0.00 68 1022.6
20181117064515 36 139 0.0 1.0 0.00 0.00 0.00 68 1022.4
20181117063515 36 138 0.0 1.0 0.00 0.00 0.00 70 1022.4
20181117062516 35 0.0 0.0 0.00 0.00 0.00 68 1021.9
20181117061516 35 0.0 1.0 0.00 0.00 0.00 68 1022.1
20181117060518 34 0.0 0.0 0.00 0.00 0.00 69 1021.7
20181117055515 34 0.0 0.0 0.00 0.00 0.00 68 1021.6
20181117054516 35 0.0 0.0 0.00 0.00 0.00 65 1021.6
20181117053515 36 0.0 1.0 0.00 0.00 0.00 63 1021.6
20181117052516 37 0.0 1.0 0.00 0.00 0.00 60 1021.9
20181117051516 38 0.0 1.0 0.00 0.00 0.00 59 1022.1
20181117050518 39 137 0.0 2.0 0.00 0.00 0.00 58 1021.9
20181117045516 39 128 0.0 3.0 0.00 0.00 0.00 57 1021.5
20181117044518 40 128 0.0 3.0 0.00 0.00 0.00 55 1021.3
20181117043516 40 125 0.0 4.0 0.00 0.00 0.00 54 1021.2
20181117042517 40 142 1.0 3.0 0.00 0.00 0.00 52 1021.1
20181117041517 41 139 0.0 5.0 0.00 0.00 0.00 51 1020.9
20181117040517 42 143 2.0 8.0 0.00 0.00 0.00 49 1020.6
20181117035518 42 147 1.0 8.0 0.00 0.00 0.00 48 1020.7
20181117034517 43 159 1.0 13.0 0.00 0.00 0.00 46 1019.9
20181117033517 45 139 2.0 8.0 0.00 0.00 0.00 44 1019.5
20181117032517 46 179 1.0 5.0 0.00 0.00 0.00 41 1019.6
20181117031517 46 145 0.0 2.0 0.00 0.00 0.00 40 1019.0
20181117030518 45 190 0.0 2.0 0.00 0.00 0.00 38 1018.1
20181117025517 44 227 0.0 3.0 0.00 0.00 0.00 36 1017.7
20181117024517 43 185 0.0 2.0 0.00 0.00 0.00 36 1017.1
20181117023517 43 115 0.0 1.0 0.00 0.00 0.00 41 1016.2
20181117022517 42 116 0.0 1.0 0.00 0.00 0.00 38 1016.2
20181117021517 41 115 0.0 1.0 0.00 0.00 0.00 41 1016.2
20181117020518 42 0.0 1.0 0.00 0.00 0.00 42 1015.7
20181117015517 43 115 0.0 1.0 0.00 0.00 0.00 39 1015.7
20181117014517 43 116 0.0 3.0 0.00 0.00 0.00 37 1015.2
20181117013517 44 119 0.0 1.0 0.00 0.00 0.00 36 1014.9
20181117012517 45 119 0.0 1.0 0.00 0.00 0.00 35 1015.2
20181117011517 45 119 0.0 3.0 0.00 0.00 0.00 34 1015.5
20181117010517 46 0.0 2.0 0.00 0.00 0.00 33 1015.9
20181117005517 47 113 0.0 2.0 0.00 0.00 0.00 31 1015.8
20181117004517 47 112 0.0 4.0 0.00 0.00 0.00 31 1015.4
20181117003517 46 113 0.0 2.0 0.00 0.00 0.00 32 1014.9
20181117002517 45 127 0.0 2.0 0.00 0.00 0.00 34 1014.5
20181117001517 45 0.0 0.0 0.00 0.00 0.00 37 1015.0
20181117000516 46 127 0.0 1.0 0.00 0.00 0.00 33 1015.3
20181116235517 48 127 0.0 1.0 0.00 0.00 0.00 31 1015.3
20181116234517 47 333 0.0 1.0 0.00 0.00 0.00 31 1014.7
20181116233517 49 0.0 0.0 0.00 0.00 0.00 34 1014.7
20181116232517 50 0.0 0.0 0.00 0.00 0.00 34 1015.0
20181116231517 52 0.0 0.0 0.00 0.00 0.00 31 1015.4
20181116230518 53 0.0 1.0 0.00 0.00 0.00 28 1015.2
20181116225517 54 333 0.0 1.0 0.00 0.00 0.00 28 1015.2
20181116224517 54 0.0 1.0 0.00 0.00 0.00 26 1015.4
20181116223516 55 333 0.0 1.0 0.00 0.00 0.00 25 1015.2
20181116222517 56 332 0.0 2.0 0.00 0.00 0.00 25 1015.7
20181116221518 57 331 0.0 1.0 0.00 0.00 0.00 23 1015.5
20181116220517 58 0.0 2.0 0.00 0.00 0.00 23 1016.0
20181116215517 59 287 0.0 4.0 0.00 0.00 0.00 24 1016.2
20181116214517 59 337 0.0 2.0 0.00 0.00 0.00 26 1015.9
20181116213517 59 205 0.0 2.0 0.00 0.00 0.00 27 1015.9
20181116212517 60 76 0.0 1.0 0.00 0.00 0.00 21 1016.1
20181116211517 60 43 0.0 2.0 0.00 0.00 0.00 20 1016.4
20181116210517 60 351 0.0 3.0 0.00 0.00 0.00 20 1016.0
20181116205516 60 120 0.0 2.0 0.00 0.00 0.00 20 1016.0
20181116204517 59 120 0.0 1.0 0.00 0.00 0.00 20 1015.7
20181116203517 58 120 0.0 2.0 0.00 0.00 0.00 21 1015.6
20181116202517 57 125 0.0 1.0 0.00 0.00 0.00 23 1015.4
20181116201517 56 125 0.0 1.0 0.00 0.00 0.00 24 1015.5
20181116200517 56 0.0 0.0 0.00 0.00 0.00 25 1015.3
20181116195517 55 0.0 0.0 0.00 0.00 0.00 27 1015.8
20181116194517 55 0.0 1.0 0.00 0.00 0.00 24 1015.8
20181116193517 55 124 0.0 1.0 0.00 0.00 0.00 22 1015.6
20181116192516 55 0.0 0.0 0.00 0.00 0.00 22 1015.7
20181116191516 55 124 0.0 2.0 0.00 0.00 0.00 22 1016.2
20181116190517 55 125 0.0 1.0 0.00 0.00 0.00 22 1016.3
20181116185516 55 125 0.0 1.0 0.00 0.00 0.00 25 1016.0
20181116184516 54 125 0.0 1.0 0.00 0.00 0.00 22 1016.1
20181116183517 54 126 0.0 1.0 0.00 0.00 0.00 23 1015.8
20181116182517 53 129 0.0 2.0 0.00 0.00 0.00 22 1016.3
20181116181518 53 129 0.0 1.0 0.00 0.00 0.00 27 1016.5
20181116180517 52 129 0.0 1.0 0.00 0.00 0.00 23 1016.7
20181116175516 52 134 0.0 1.0 0.00 0.00 0.00 23 1016.3
20181116174516 51 135 0.0 2.0 0.00 0.00 0.00 23 1016.5
20181116173516 51 134 0.0 1.0 0.00 0.00 0.00 24 1016.6
20181116172518 51 0.0 1.0 0.00 0.00 0.00 25 1016.3
20181116171516 51 134 0.0 2.0 0.00 0.00 0.00 23 1016.3
20181116170516 50 133 0.0 2.0 0.00 0.00 0.00 23 1016.4
20181116165516 49 102 0.0 1.0 0.00 0.00 0.00 24 1016.1
20181116164517 47 92 0.0 1.0 0.00 0.00 0.00 26 1015.7
20181116163516 45 0.0 1.0 0.00 0.00 0.00 34 1015.5
20181116162517 45 0.0 0.0 0.00 0.00 0.00 32 1015.4
20181116161516 45 0.0 1.0 0.00 0.00 0.00 30 1015.3
20181116160516 45 77 0.0 1.0 0.00 0.00 0.00 29 1015.4